AJ5AG Weather Reports


time (UTC)temp
C
wind
direction
speed
KPH
gust
KPH
rain 1hr
cm
rain 24hr
cm
rain mn
cm
humidity
%
barometer
mb
20260505230816 28 104 0.0 3.2 0.00 0.00 0.00 73 1009.2
20260505230312 28 100 0.0 3.2 0.00 0.00 0.00 73 1009.1
20260505225809 28 103 3.2 6.4 0.00 0.00 0.00 73 1009.2
20260505225306 28 88 0.0 1.6 0.00 0.00 0.00 74 1009.3
20260505224801 28 80 0.0 1.6 0.00 0.00 0.00 73 1009.2
20260505224259 28 108 0.0 0.0 0.00 0.00 0.00 73 1009.1
20260505223756 28 131 1.6 1.6 0.00 0.00 0.00 73 1009.0
20260505223253 28 132 3.2 6.4 0.00 0.00 0.00 73 1009.1
20260505222749 28 156 0.0 0.0 0.00 0.00 0.00 74 1009.0
20260505222245 28 29 0.0 1.6 0.00 0.00 0.00 74 1009.2
20260505221742 28 96 1.6 3.2 0.00 0.00 0.00 73 1009.0
20260505221239 28 99 0.0 3.2 0.00 0.00 0.00 73 1009.2
20260505220736 28 107 1.6 6.4 0.00 0.00 0.00 72 1009.0
20260505220233 28 128 1.6 3.2 0.00 0.00 0.00 71 1009.0
20260505215731 28 159 1.6 3.2 0.00 0.00 0.00 72 1009.3
20260505215229 28 92 0.0 0.0 0.00 0.00 0.00 72 1009.3
20260505214726 28 160 0.0 0.0 0.00 0.00 0.00 72 1009.2
20260505214224 28 68 0.0 0.0 0.00 0.00 0.00 73 1009.2
20260505213721 28 102 0.0 12.9 0.00 0.00 0.00 72 1009.4
20260505213218 28 52 0.0 3.2 0.00 0.00 0.00 71 1009.5
20260505212714 28 128 3.2 11.3 0.00 0.00 0.00 70 1009.4
20260505212212 29 44 1.6 1.6 0.00 0.00 0.00 69 1009.4
20260505211708 29 145 3.2 4.8 0.00 0.00 0.00 70 1009.5
20260505211206 29 125 1.6 1.6 0.00 0.00 0.00 70 1009.4
20260505210702 29 158 3.2 6.4 0.00 0.00 0.00 70 1009.5
20260505210159 29 100 0.0 1.6 0.00 0.00 0.00 70 1009.6
20260505205656 29 188 1.6 3.2 0.00 0.00 0.00 70 1009.5
20260505205154 29 97 0.0 1.6 0.00 0.00 0.00 70 1009.7
20260505204650 29 102 0.0 1.6 0.00 0.00 0.00 70 1010.0
20260505204149 29 88 1.6 3.2 0.00 0.00 0.00 69 1009.9
20260505203646 29 63 1.6 6.4 0.00 0.00 0.00 69 1010.1
20260505203142 29 174 3.2 4.8 0.00 0.00 0.00 71 1010.3
20260505202638 29 97 1.6 3.2 0.00 0.00 0.00 70 1010.2
20260505202134 29 91 0.0 3.2 0.00 0.00 0.00 69 1010.1
20260505201631 30 208 1.6 1.6 0.00 0.00 0.00 68 1010.3
20260505201129 30 58 1.6 4.8 0.00 0.00 0.00 68 1010.2
20260505200627 30 85 0.0 1.6 0.00 0.00 0.00 70 1010.4
20260505200123 28 137 1.6 1.6 0.00 0.00 0.00 72 1010.4
20260505195619 28 127 1.6 3.2 0.00 0.00 0.00 72 1010.7
20260505195117 28 80 0.0 4.8 0.00 0.00 0.00 73 1010.8
20260505194614 28 19 1.6 1.6 0.00 0.00 0.00 72 1010.9
20260505194110 28 106 1.6 9.7 0.00 0.00 0.00 73 1010.9
20260505193607 28 139 3.2 6.4 0.00 0.00 0.00 72 1011.0
20260505193104 28 109 1.6 4.8 0.00 0.00 0.00 72 1010.9
20260505192603 28 25 1.6 3.2 0.00 0.00 0.00 73 1011.0
20260505192100 28 94 0.0 1.6 0.00 0.00 0.00 74 1011.1
20260505191558 28 152 3.2 4.8 0.00 0.00 0.00 73 1011.0
20260505191056 28 105 0.0 6.4 0.00 0.00 0.00 74 1010.8
20260505190556 28 93 4.8 4.8 0.00 0.00 0.00 73 1010.8
20260505190052 28 113 0.0 3.2 0.00 0.00 0.00 72 1010.8
20260505185549 29 85 1.6 3.2 0.00 0.00 0.00 71 1010.8
20260505185045 28 72 0.0 9.7 0.00 0.00 0.00 72 1011.0
20260505184542 28 126 1.6 1.6 0.00 0.00 0.00 73 1011.0
20260505184039 28 184 1.6 4.8 0.00 0.00 0.00 73 1011.1
20260505183536 28 139 0.0 3.2 0.00 0.00 0.00 74 1010.9
20260505183033 27 138 1.6 9.7 0.00 0.00 0.00 75 1011.0
20260505182529 27 188 0.0 1.6 0.00 0.00 0.00 78 1011.2
20260505182026 27 99 0.0 1.6 0.00 0.00 0.00 78 1011.3
20260505181523 27 96 0.0 1.6 0.00 0.00 0.00 76 1011.3
20260505181020 27 89 0.0 1.6 0.00 0.00 0.00 76 1011.5
20260505180516 27 77 3.2 6.4 0.00 0.00 0.00 75 1011.3
20260505180014 26 109 1.6 4.8 0.00 0.00 0.00 79 1011.5
20260505175508 26 108 1.6 1.6 0.00 0.00 0.00 81 1011.5
20260505175006 26 101 0.0 1.6 0.00 0.00 0.00 79 1011.5
20260505174503 27 103 0.0 1.6 0.00 0.00 0.00 78 1011.4
20260505173959 27 23 1.6 3.2 0.00 0.00 0.00 77 1011.7
20260505173455 27 74 0.0 1.6 0.00 0.00 0.00 78 1011.7
20260505172952 26 105 0.0 1.6 0.00 0.00 0.00 79 1011.7
20260505172451 26 356 3.2 4.8 0.00 0.00 0.00 80 1011.8
20260505171950 26 89 1.6 9.7 0.00 0.00 0.00 80 1011.7
20260505171447 26 125 0.0 0.0 0.00 0.00 0.00 80 1011.7
20260505170944 26 120 0.0 1.6 0.00 0.00 0.00 80 1011.8
20260505170440 26 146 1.6 3.2 0.00 0.00 0.00 80 1011.6
20260505165936 26 94 0.0 1.6 0.00 0.00 0.00 80 1011.7
20260505165432 26 49 1.6 1.6 0.00 0.00 0.00 80 1011.7
20260505164927 26 109 3.2 4.8 0.00 0.00 0.00 80 1011.9
20260505164424 26 59 3.2 6.4 0.00 0.00 0.00 80 1011.9
20260505163922 26 118 0.0 1.6 0.00 0.00 0.00 81 1011.8
20260505163421 25 44 1.6 3.2 0.00 0.00 0.00 82 1011.8
20260505162920 25 188 3.2 3.2 0.00 0.00 0.00 82 1012.0
20260505162415 25 95 0.0 1.6 0.00 0.00 0.00 82 1012.0
20260505161912 25 115 1.6 1.6 0.00 0.00 0.00 82 1012.1
20260505161409 25 121 0.0 3.2 0.00 0.00 0.00 83 1012.0
20260505160906 25 96 0.0 3.2 0.00 0.00 0.00 83 1012.1
20260505160404 25 105 0.0 1.6 0.00 0.00 0.00 85 1011.9
20260505153343 24 101 0.0 1.6 0.00 0.00 0.00 85 1011.8
20260505152840 24 91 0.0 1.6 0.00 0.00 0.00 85 1011.9
20260505152338 24 99 0.0 1.6 0.00 0.00 0.00 85 1011.8
20260505151837 24 99 0.0 0.0 0.00 0.00 0.00 85 1011.9
20260505151334 24 84 0.0 0.0 0.00 0.00 0.00 85 1011.8
20260505150832 24 98 0.0 0.0 0.00 0.00 0.00 85 1011.6
20260505150329 24 114 0.0 0.0 0.00 0.00 0.00 85 1011.6
20260505140258 22 87 1.6 6.4 0.00 0.00 0.00 88 1011.4
20260505130222 22 89 0.0 1.6 0.00 0.00 0.00 90 1011.6
20260505124712 22 84 0.0 1.6 0.00 0.00 0.00 90 1011.5
20260505124209 22 113 0.0 1.6 0.00 0.00 0.00 90 1011.3
20260505123705 22 103 0.0 1.6 0.00 0.00 0.00 90 1011.2
20260505123202 22 104 0.0 0.0 0.00 0.00 0.00 90 1011.2
20260505122658 22 94 0.0 0.0 0.00 0.00 0.00 90 1011.1
20260505122156 22 103 0.0 0.0 0.00 0.00 0.00 90 1010.9
20260505121652 22 156 0.0 0.0 0.00 0.00 0.00 89 1010.7
20260505121149 22 85 1.6 3.2 0.00 0.00 0.00 89 1010.8
20260505120645 22 70 1.6 4.8 0.00 0.00 0.00 90 1010.9
20260505120141 22 104 0.0 1.6 0.00 0.00 0.00 89 1010.8
20260505115635 22 107 0.0 1.6 0.00 0.00 0.00 89 1010.9
20260505115133 22 102 0.0 1.6 0.00 0.00 0.00 89 1010.8
20260505114630 21 109 0.0 1.6 0.00 0.00 0.00 89 1011.0
20260505114126 22 97 0.0 1.6 0.00 0.00 0.00 89 1011.0
20260505113622 22 227 0.0 1.6 0.00 0.00 0.00 89 1010.8
20260505113119 22 113 0.0 3.2 0.00 0.00 0.00 89 1010.8
20260505112615 22 121 1.6 3.2 0.00 0.00 0.00 89 1011.0
20260505112114 22 113 0.0 3.2 0.00 0.00 0.00 89 1010.8
20260505111614 22 96 0.0 1.6 0.00 0.00 0.00 89 1010.8
20260505111110 21 123 0.0 3.2 0.00 0.00 0.00 89 1010.7
20260505110606 21 129 0.0 1.6 0.00 0.00 0.00 89 1010.7
20260505102039 21 106 0.0 0.0 0.00 0.00 0.00 89 1010.7
20260505101537 21 97 0.0 1.6 0.00 0.00 0.00 89 1010.6
20260505101033 21 114 0.0 3.2 0.00 0.00 0.00 89 1010.9
20260505100530 21 43 1.6 3.2 0.00 0.00 0.00 89 1010.9
20260505100027 21 101 0.0 0.0 0.00 0.00 0.00 89 1011.1
20260505095523 21 111 0.0 1.6 0.00 0.00 0.00 89 1011.0
20260505095019 21 102 0.0 0.0 0.00 0.00 0.00 89 1010.9
20260505094516 21 98 0.0 0.0 0.00 0.00 0.00 89 1010.8
20260505094013 21 142 0.0 3.2 0.00 0.00 0.00 89 1010.9
20260505093509 21 73 1.6 1.6 0.00 0.00 0.00 89 1011.1
20260505093007 21 90 0.0 1.6 0.00 0.00 0.00 88 1011.1
20260505092504 21 102 0.0 0.0 0.00 0.00 0.00 88 1011.2
20260505092001 21 88 0.0 0.0 0.00 0.00 0.00 88 1011.1
20260505091459 21 102 0.0 0.0 0.00 0.00 0.00 88 1011.2
20260505090957 21 111 0.0 0.0 0.00 0.00 0.00 88 1011.4
20260505090455 21 91 0.0 0.0 0.00 0.00 0.00 88 1011.3
20260505085952 21 87 0.0 0.0 0.00 0.00 0.00 88 1011.2
20260505085449 21 85 0.0 0.0 0.00 0.00 0.00 88 1011.2
20260505084948 21 103 0.0 1.6 0.00 0.00 0.00 87 1011.4
20260505084446 21 106 0.0 1.6 0.00 0.00 0.00 87 1011.4
20260505083943 21 132 1.6 1.6 0.00 0.00 0.00 87 1011.5
20260505083440 21 107 0.0 0.0 0.00 0.00 0.00 87 1011.5
20260505082936 21 95 0.0 0.0 0.00 0.00 0.00 87 1011.5
20260505082432 21 89 0.0 0.0 0.00 0.00 0.00 86 1011.6
20260505081930 21 74 0.0 0.0 0.00 0.00 0.00 86 1011.6
20260505081426 21 90 0.0 0.0 0.00 0.00 0.00 87 1011.5
20260505080923 21 85 0.0 0.0 0.00 0.00 0.00 86 1011.6
20260505080419 21 81 0.0 0.0 0.00 0.00 0.00 86 1011.8
20260505075914 21 98 0.0 0.0 0.00 0.00 0.00 86 1011.6
20260505075412 21 80 0.0 1.6 0.00 0.00 0.00 86 1011.6
20260505074909 21 79 0.0 0.0 0.00 0.00 0.00 86 1011.7
20260505074406 21 76 0.0 3.2 0.00 0.00 0.00 86 1011.8
20260505073903 21 102 0.0 0.0 0.00 0.00 0.00 85 1011.7
20260505073401 21 85 0.0 0.0 0.00 0.00 0.00 85 1011.7
20260505072858 21 97 0.0 0.0 0.00 0.00 0.00 85 1011.8
20260505072354 21 84 0.0 0.0 0.00 0.00 0.00 85 1012.0
20260505071850 21 117 0.0 0.0 0.00 0.00 0.00 85 1012.0
20260505071346 21 107 0.0 0.0 0.00 0.00 0.00 85 1012.3
20260505070845 21 96 0.0 0.0 0.00 0.00 0.00 84 1012.2
20260505070341 21 110 0.0 0.0 0.00 0.00 0.00 84 1012.2
20260505065836 21 117 0.0 0.0 0.00 0.00 0.00 84 1012.1
20260505065333 21 110 0.0 0.0 0.00 0.00 0.00 84 1012.1
20260505064830 21 119 0.0 0.0 0.00 0.00 0.00 84 1012.2
20260505064327 21 97 0.0 0.0 0.00 0.00 0.00 83 1012.3
20260505063826 21 107 0.0 0.0 0.00 0.00 0.00 83 1012.3
20260505063321 21 115 0.0 0.0 0.00 0.00 0.00 83 1012.4
20260505062818 21 101 0.0 0.0 0.00 0.00 0.00 83 1012.7
20260505062316 21 86 0.0 0.0 0.00 0.00 0.00 83 1012.5
20260505061812 21 112 0.0 0.0 0.00 0.00 0.00 82 1012.5
20260505061310 21 93 0.0 0.0 0.00 0.00 0.00 82 1012.4
20260505060808 21 119 0.0 0.0 0.00 0.00 0.00 82 1012.7
20260505060304 21 92 0.0 0.0 0.00 0.00 0.00 82 1012.7
20260505055800 21 87 0.0 0.0 0.00 0.00 0.00 82 1012.7
20260505055256 21 123 0.0 0.0 0.00 0.00 0.00 81 1012.6
20260505054754 21 101 0.0 0.0 0.00 0.00 0.00 81 1012.5
20260505054251 21 97 0.0 0.0 0.00 0.00 0.00 81 1012.6
20260505053749 21 112 0.0 0.0 0.00 0.00 0.00 81 1012.5
20260505053245 21 125 0.0 0.0 0.00 0.00 0.00 80 1012.5
20260505052743 21 94 0.0 0.0 0.00 0.00 0.00 80 1012.8
20260505052240 21 85 0.0 0.0 0.00 0.00 0.00 80 1012.6
20260505051736 21 128 0.0 0.0 0.00 0.00 0.00 80 1012.7
20260505051235 21 93 0.0 0.0 0.00 0.00 0.00 80 1012.7
20260505050732 21 127 0.0 0.0 0.00 0.00 0.00 80 1012.8
20260505050230 21 107 0.0 0.0 0.00 0.00 0.00 80 1012.9
20260505041700 22 102 0.0 0.0 0.00 0.00 0.00 78 1012.8
20260505041157 22 85 0.0 0.0 0.00 0.00 0.00 78 1012.8
20260505040654 22 99 0.0 0.0 0.00 0.00 0.00 77 1012.7
20260505040152 22 128 0.0 1.6 0.00 0.00 0.00 76 1012.8
20260505035648 22 123 1.6 3.2 0.00 0.00 0.00 76 1012.8
20260505035144 22 88 0.0 1.6 0.00 0.00 0.00 76 1012.8
20260505034641 22 102 0.0 0.0 0.00 0.00 0.00 76 1012.9
20260505034138 22 84 0.0 3.2 0.00 0.00 0.00 76 1012.7
20260505033634 22 109 1.6 4.8 0.00 0.00 0.00 75 1012.8
20260505033133 22 91 0.0 0.0 0.00 0.00 0.00 75 1012.8
20260505032631 22 106 0.0 0.0 0.00 0.00 0.00 75 1012.8
20260505032127 23 104 0.0 1.6 0.00 0.00 0.00 74 1012.8
20260505031624 23 97 0.0 1.6 0.00 0.00 0.00 73 1013.1
20260505031120 23 111 0.0 1.6 0.00 0.00 0.00 73 1012.7
20260505030617 23 111 4.8 4.8 0.00 0.00 0.00 73 1012.9
20260505030113 23 103 0.0 0.0 0.00 0.00 0.00 72 1012.8
20260505025609 23 105 6.4 9.7 0.00 0.00 0.00 72 1012.9
20260505025108 23 107 0.0 11.3 0.00 0.00 0.00 72 1012.7
20260505024605 23 112 0.0 0.0 0.00 0.00 0.00 72 1012.9
20260505024102 23 95 0.0 1.6 0.00 0.00 0.00 72 1012.7
20260505023559 23 93 0.0 0.0 0.00 0.00 0.00 71 1012.6
20260505023057 23 125 1.6 3.2 0.00 0.00 0.00 71 1012.7
20260505022554 23 97 1.6 11.3 0.00 0.00 0.00 71 1012.6
20260505022051 23 110 0.0 1.6 0.00 0.00 0.00 71 1012.5
20260505021547 23 104 0.0 3.2 0.00 0.00 0.00 70 1012.7
20260505021044 23 83 1.6 4.8 0.00 0.00 0.00 70 1012.6
20260505020544 23 111 0.0 3.2 0.00 0.00 0.00 70 1012.6
20260505020041 23 113 0.0 0.0 0.00 0.00 0.00 71 1012.8
20260505015538 23 116 0.0 0.0 0.00 0.00 0.00 71 1012.6
20260505015035 23 105 0.0 0.0 0.00 0.00 0.00 70 1012.6
20260505014532 23 118 0.0 0.0 0.00 0.00 0.00 70 1012.4
20260505014029 23 107 0.0 0.0 0.00 0.00 0.00 70 1012.4
20260505013526 23 59 0.0 0.0 0.00 0.00 0.00 70 1012.2
20260505013024 23 90 0.0 1.6 0.00 0.00 0.00 70 1012.1
20260505012522 23 122 3.2 3.2 0.00 0.00 0.00 69 1012.2
20260505012019 23 122 0.0 0.0 0.00 0.00 0.00 69 1011.9
20260505011514 24 85 3.2 3.2 0.00 0.00 0.00 69 1011.9
20260505011011 24 98 0.0 0.0 0.00 0.00 0.00 69 1012.2
20260505010506 24 107 0.0 1.6 0.00 0.00 0.00 69 1012.3
20260505010003 24 91 0.0 0.0 0.00 0.00 0.00 68 1012.2
20260505005500 24 106 0.0 1.6 0.00 0.00 0.00 67 1012.1
20260505004958 25 111 0.0 0.0 0.00 0.00 0.00 66 1012.2
20260505004454 25 106 0.0 0.0 0.00 0.00 0.00 66 1012.3
20260505003951 25 106 0.0 1.6 0.00 0.00 0.00 66 1012.4
20260505003448 25 83 0.0 3.2 0.00 0.00 0.00 66 1012.5
20260505002944 25 82 0.0 0.0 0.00 0.00 0.00 65 1012.5
20260505002440 25 81 0.0 0.0 0.00 0.00 0.00 64 1012.5
20260505001939 25 111 0.0 1.6 0.00 0.00 0.00 64 1012.5
20260505001436 25 108 0.0 3.2 0.00 0.00 0.00 64 1012.3
20260505000933 25 75 0.0 1.6 0.00 0.00 0.00 63 1012.3
20260505000431 25 117 0.0 1.6 0.00 0.00 0.00 61 1012.2
20260504235927 25 120 0.0 3.2 0.00 0.00 0.00 62 1012.3
20260504235425 26 142 0.0 3.2 0.00 0.00 0.00 61 1012.3
20260504234921 26 77 0.0 4.8 0.00 0.00 0.00 61 1012.2
20260504234419 26 93 0.0 0.0 0.00 0.00 0.00 62 1012.5
20260504233915 26 146 1.6 3.2 0.00 0.00 0.00 61 1012.5
20260504233411 26 89 0.0 1.6 0.00 0.00 0.00 61 1012.1
20260504232908 26 118 0.0 0.0 0.00 0.00 0.00 60 1012.3
20260504232405 26 124 0.0 4.8 0.00 0.00 0.00 60 1012.5
20260504231902 26 114 0.0 1.6 0.00 0.00 0.00 59 1012.4
20260504231358 26 30 1.6 1.6 0.00 0.00 0.00 58 1012.8